Presure
192 193 193 172 165 187 244 252 244 231 258 253 286 307 373 385 408 452 445 358 302 258 258 248 250 240 220 198 135 126 187 126 184 188 188 185 188 191 207 147 115 138 139 180 154 207 141
189 207 153 211 193 194 241 245 236 225 244 242 254 287 311 370 403 403 426 452 458 264 254 228 292 301 144 161 195 193 82 185 181 167 188 178 179 185 124 189 194 91 92 124 136 197 167
220 152 182 207 177 219 255 245 227 220 243 255 262 285 293 314 364 399 425 436 460 454 238 256 227 190 274 148 157 187 194 195 175 180 174 168 185 185 186 183 198 212 145 106 186 126 207
222 198 217 199 178 219 254 242 230 228 232 244 252 276 280 301 320 376 400 435 449 369 262 217 258 227 85 205 200 174 201 189 186 108 174 174 171 172 195 184 184 177 110 146 121 101 142
215 198 215 195 197 220 257 240 224 222 247 242 252 247 267 287 310 354 383 394 424 470 396 243 247 220 201 72 176 174 176 178 182 186 185 168 191 161 88 124 194 186 145 90 177 198 159
208 195 215 189 211 215 272 239 217 232 234 241 241 248 267 277 288 322 372 401 376 412 456 258 93 258 132 119 228 204 151 164 178 183 189 150 173 105 175 169 137 169 207 192 184 129 138
206 195 215 186 209 216 287 241 234 228 232 229 235 229 254 266 272 296 379 391 394 386 439 259 211 246 272 224 214 205 203 177 186 187 180 152 169 172 184 156 93 171 173 177 146 199 110
204 205 213 187 203 222 285 222 214 236 223 218 240 236 241 243 269 288 317 395 415 388 396 237 213 246 264 215 303 215 213 194 201 184 182 170 188 167 110 80 188 166 168 175 114 194 188
200 209 205 189 203 222 256 239 215 230 227 228 226 239 232 242 251 281 300 323 375 429 463 227 215 242 257 239 274 232 205 207 199 191 169 108 160 169 180 116 185 103 187 166 145 188 196
196 211 199 198 202 219 232 240 225 233 227 223 230 227 224 232 242 249 280 311 345 416 468 214 209 222 248 258 211 284 212 202 202 196 174 166 91 181 171 192 177 179 193 173 193 184 182
194 211 192 202 203 218 224 246 226 237 167 227 231 221 238 229 242 245 262 277 324 355 357 213 206 198 236 261 214 252 219 204 197 200 201 177 68 173 170 188 174 194 187 202 180 179 189
197 211 186 202 200 217 220 249 225 238 223 224 233 216 221 216 229 232 242 264 305 348 224 211 195 208 218 258 221 252 270 216 180 199 206 194 144 105 180 180 169 156 101 202 170 190 173
203 211 187 200 201 216 216 239 230 236 206 228 230 223 229 220 220 222 234 84 286 336 206 212 198 199 199 216 258 262 243 227 213 207 201 202 185 126 182 129 165 178 166 149 160 192 183
206 207 185 200 200 215 223 227 243 214 219 224 157 218 225 224 223 216 232 95 257 293 226 216 203 192 188 196 236 258 208 192 197 202 200 178 190 182 188 189 100 90 158 193 90 194 160
211 205 183 198 197 210 225 226 259 224 227 208 231 218 221 220 218 221 223 224 141 252 281 210 202 202 189 189 201 238 255 187 195 192 193 194 183 184 184 183 175 172 176 178 171 187 133
215 201 183 198 201 207 221 227 267 231 232 211 233 213 220 173 216 220 228 234 236 243 250 197 197 200 197 185 194 208 193 195 189 191 183 189 158 184 189 178 187 175 182 169 174 170 154
215 200 183 197 205 208 217 231 261 249 219 229 217 207 174 217 216 214 219 236 236 234 234 246 197 195 197 189 193 187 188 188 188 189 186 169 174 179 188 192 192 159 158 165 194 183 194
214 200 200 194 209 210 221 186 246 261 217 242 222 221 204 216 205 225 216 220 229 228 234 230 231 198 198 197 195 190 187 186 187 195 199 200 182 202 154 146 187 195 195 153 189 176 194
213 161 201 196 205 209 222 180 156 284 227 211 219 228 212 222 206 218 153 87 228 229 222 221 246 248 199 198 196 195 189 191 191 188 186 185 185 182 186 184 172 171 180 181 239 164 169
208 178 205 199 193 190 189 224 174 291 212 221 227 222 213 221 223 213 226 203 207 232 223 231 225 226 230 239 223 197 195 195 195 199 199 196 181 198 150 204 194 195 190 196 177 158 190
203 152 200 199 194 208 219 229 254 193 252 192 223 224 204 229 225 214 208 218 226 207 217 225 223 219 216 225 233 235 230 239 248 235 196 197 196 190 197 191 197 211 193 175 172 156 179
149 200 151 195 201 195 218 221 253 167 224 218 161 231 200 239 230 207 214 207 125 225 229 225 212 224 211 226 218 229 221 230 226 232 229 222 188 141 237 154 195 148 219 157 155 195 149
159 199 205 177 194 200 203 224 238 209 178 249 174 239 235 219 228 223 217 205 214 217 214 226 217 207 224 222 226 216 222 220 210 218 222 229 233 235 227 204 204 218 192 129 157 199 200
173 188 196 189 201 198 201 204 226 268 316 231 182 183 216 192 219 220 215 219 209 208 165 211 225 225 210 211 220 222 232 137 219 215 175 222 190 177 221 208 184 219 216 174 175 159 156
180 181 197 165 193 195 187 206 197 231 342 302 180 173 234 240 221 233 226 231 238 214 211 209 208 215 224 212 145 172 213 223 213 140 132 223 204 139 160 157 141 149 158 193 197 195 198
190 186 166 140 151 195 191 192 194 206 230 376 218 186 245 192 236 241 200 214 223 238 230 234 202 212 224 219 222 232 217 194 139 140 210 207 214 203 151 150 150 208 203 196 200 170 171
191 199 190 171 144 193 199 189 192 197 205 226 367 285 170 231 248 199 224 239 231 181 208 219 236 212 158 192 222 193 200 229 227 189 215 204 211 179 166 140 189 167 170 198 196 203 209
201 188 206 151 144 148 201 201 196 189 170 201 210 323 274 219 265 185 167 253 248 238 222 215 210 142 211 220 214 222 206 225 214 206 195 228 204 176 158 216 206 208 188 183 206 182 209
202 195 177 202 140 146 148 184 192 192 198 169 186 206 229 345 222 279 256 226 230 254 251 241 161 149 232 255 204 215 236 238 234 147 208 201 168 154 150 197 197 201 204 192 159 200 204
Wind_Speed
45 51 52 47 46 59 62 52 54 58 58 59 53 61 56 34 27 28 47 77 92 89 91 92 97 101 92 78 53 37 75 52 59 54 52 45 43 44 42 46 29 43 40 33 31 35 36
46 52 41 53 58 60 65 51 53 56 62 56 52 56 65 54 36 29 24 31 50 92 90 90 98 111 60 69 85 81 20 71 59 61 53 48 51 46 56 31 37 40 27 44 38 32 29
51 40 48 52 54 61 51 45 48 52 57 58 57 57 65 70 51 32 17 23 30 43 86 86 86 72 102 80 62 81 81 77 62 61 58 62 53 42 36 35 31 38 46 27 34 39 28
50 52 52 51 54 60 53 42 47 53 55 51 51 59 59 71 70 40 27 5 13 62 87 78 90 80 21 88 81 73 82 70 68 34 61 58 50 35 40 31 38 42 43 46 28 31 38
47 51 51 49 54 60 51 38 44 49 44 47 49 46 56 72 70 54 33 25 16 12 51 86 83 78 83 5 68 78 65 65 71 73 72 51 49 45 40 38 35 35 33 42 23 22 32
45 48 48 49 52 59 36 35 40 45 44 46 45 53 66 69 73 67 37 18 15 13 14 88 19 80 41 30 93 88 61 61 70 74 69 39 39 28 35 40 42 45 43 24 25 29 33
45 46 46 47 48 54 30 31 38 41 37 39 39 38 58 65 67 68 44 16 6 10 9 80 71 76 80 81 65 86 87 71 78 62 42 50 38 36 50 67 44 39 36 32 36 27 36
44 43 43 44 47 54 27 32 38 30 34 30 44 41 52 50 66 63 61 35 5 9 16 79 73 79 77 77 82 89 89 79 78 57 48 47 51 51 40 24 39 48 31 43 34 27 30
41 39 40 41 44 49 37 29 32 29 26 27 34 42 37 55 59 67 64 53 39 4 13 73 70 71 70 72 72 90 83 83 78 68 47 28 62 55 44 22 46 39 35 44 40 27 27
39 38 37 38 42 46 47 25 28 23 22 22 33 35 31 45 51 53 64 55 44 18 15 72 68 65 67 72 79 79 84 80 77 71 66 58 35 47 32 58 47 38 36 47 32 28 33
35 36 33 36 38 42 44 22 23 19 8 19 27 32 42 44 48 52 53 54 36 25 35 72 70 67 67 65 76 73 85 76 75 78 75 61 13 34 38 59 45 48 38 48 22 30 33
31 32 32 33 34 39 38 21 19 9 14 17 23 27 34 32 41 43 44 42 37 9 73 70 60 65 60 62 67 70 70 81 69 72 77 70 47 33 65 55 53 52 28 49 37 28 39
26 28 30 30 31 35 32 30 14 6 18 15 15 29 30 31 32 34 34 21 40 22 63 66 59 56 54 55 61 63 61 74 68 65 62 69 56 39 57 44 48 35 45 28 51 32 41
23 22 27 27 29 30 31 33 5 12 3 6 4 14 24 24 32 28 34 21 43 49 49 66 61 55 53 52 56 57 61 52 57 65 69 52 59 55 60 63 33 29 52 43 26 39 46
20 16 23 25 27 28 27 28 10 6 12 10 9 12 20 22 25 31 30 28 19 39 44 65 59 56 52 51 50 54 52 53 57 57 57 63 62 64 64 63 47 51 41 37 40 41 43
19 11 18 21 24 25 27 27 10 10 17 1 8 6 17 21 25 26 32 36 37 40 40 62 61 60 56 53 52 54 54 55 52 56 52 60 59 55 62 51 53 53 43 45 39 45 46
17 10 15 15 20 22 26 25 21 17 7 17 4 7 10 20 21 25 30 36 44 40 41 40 63 61 61 58 58 55 56 57 55 57 56 57 60 54 60 63 62 48 50 44 52 43 49
15 10 8 11 16 19 24 8 24 22 8 19 17 14 5 20 13 20 26 33 37 38 29 43 45 65 65 61 60 59 58 57 60 63 64 68 56 65 49 35 55 62 61 51 50 46 55
12 10 9 7 13 16 20 7 1 27 18 2 20 20 14 20 15 19 17 2 32 36 38 43 39 43 63 64 63 63 61 64 63 62 60 59 60 56 60 57 51 50 53 51 51 49 50
12 12 7 5 8 7 9 20 5 28 14 17 20 19 15 20 27 22 11 19 30 22 31 26 38 43 46 41 46 66 65 66 66 67 68 67 48 67 27 70 64 65 62 65 52 39 56
15 12 9 6 5 10 12 18 18 8 33 3 16 22 11 27 32 28 20 25 19 27 36 33 29 35 40 35 30 40 45 35 32 37 68 68 70 65 69 62 65 64 66 50 49 41 56
16 17 12 9 2 3 9 9 18 3 25 10 4 28 13 22 37 21 32 23 19 29 32 34 39 28 42 27 39 29 42 37 37 41 48 53 43 38 42 24 65 34 54 25 25 64 36
21 21 16 11 9 3 2 8 13 5 5 37 4 34 32 25 24 36 33 27 27 28 29 30 37 36 30 30 24 40 34 44 43 44 42 40 44 47 51 44 48 58 49 34 43 68 69
27 26 23 17 11 8 4 2 7 12 27 25 5 15 16 9 28 27 30 34 28 27 30 28 28 33 37 36 31 27 27 36 46 44 43 38 42 45 47 47 40 51 53 51 48 50 52
36 30 29 19 18 15 14 3 6 6 20 52 11 9 25 36 17 38 32 36 37 35 31 30 26 33 39 39 27 41 38 34 44 38 28 41 47 36 46 44 42 40 46 56 58 60 64
42 37 29 20 17 20 17 13 11 5 4 35 20 7 25 9 33 36 26 18 33 43 48 51 18 25 38 38 36 37 43 41 32 32 48 45 48 48 44 43 48 54 57 57 60 43 43
46 44 38 30 19 24 21 20 13 11 6 4 31 45 11 23 27 13 26 28 39 23 14 32 49 28 27 30 35 36 29 43 47 40 50 44 49 40 42 36 50 41 51 59 57 63 66
55 47 46 29 23 19 26 22 19 16 14 10 6 23 29 19 33 14 14 39 45 41 26 23 29 33 36 33 32 31 35 36 42 39 35 46 43 39 41 52 53 56 53 49 63 56 67
61 54 44 45 26 24 21 28 25 22 15 17 13 7 10 35 15 38 32 24 24 45 44 40 25 23 31 34 34 37 41 35 38 33 41 42 41 38 32 45 48 51 54 51 41 60 65
Wind_Direction
313 312 311 312 309 309 333 326 329 330 345 343 340 352 358 331 328 277 252 231 225 224 220 219 218 216 214 212 214 214 220 215 217 225 223 221 226 230 236 231 221 221 228 230 234 240 250
314 314 311 319 316 318 337 323 331 334 343 344 349 357 9 7 345 333 283 256 234 219 218 220 213 215 211 216 211 213 203 217 213 215 225 218 223 224 232 219 233 220 230 233 245 240 248
316 311 317 321 316 335 334 323 332 334 344 354 359 8 16 12 7 347 316 263 241 223 213 212 218 212 210 221 210 211 215 216 209 217 213 213 227 223 216 234 231 252 231 229 229 247 244
317 314 320 323 321 335 339 328 334 339 346 356 359 9 18 17 10 7 9 340 227 216 208 210 210 212 135 207 208 214 212 213 216 213 217 215 219 207 233 223 238 212 218 228 223 236 245
317 317 320 326 329 339 342 331 344 345 353 2 358 7 15 19 13 15 15 44 52 186 203 205 207 208 210 197 204 211 212 211 214 221 224 207 224 216 209 208 237 202 222 230 227 231 241
316 318 321 327 340 339 333 333 348 355 355 14 4 19 16 21 16 15 14 29 59 59 181 200 175 200 207 201 205 207 207 212 214 218 220 217 207 225 208 210 229 205 252 203 226 235 241
316 319 322 327 340 339 329 338 350 351 13 23 16 21 20 26 22 19 28 39 81 133 189 191 193 197 202 204 204 206 210 213 215 215 208 211 199 210 228 214 210 208 212 217 227 253 242
316 321 323 330 336 343 334 341 350 358 8 15 26 29 32 31 22 22 23 45 48 201 190 184 191 195 199 201 197 205 209 213 214 216 213 222 225 216 213 237 240 210 236 224 234 226 230
316 322 324 332 336 345 346 349 352 352 15 20 37 35 39 38 29 21 22 24 32 114 214 184 191 193 195 197 197 203 209 210 213 217 198 208 209 220 227 224 234 231 227 222 226 232 237
316 321 325 336 337 346 354 346 1 357 18 23 44 49 49 48 41 42 32 18 21 54 143 182 191 193 193 193 200 198 207 210 213 216 216 205 227 221 192 229 222 224 235 229 239 232 235
315 318 324 335 342 347 357 343 1 0 7 30 59 61 44 52 46 42 39 37 17 90 128 181 189 195 193 192 200 199 206 209 214 215 216 219 247 209 217 231 214 241 237 248 223 230 242
312 315 322 333 342 346 0 339 3 52 29 50 65 68 66 64 62 61 47 44 36 57 175 186 196 193 193 190 199 197 198 206 211 213 213 213 219 207 224 223 211 227 237 246 226 239 236
308 312 321 332 342 349 359 351 352 86 6 61 57 76 75 86 85 80 66 193 64 99 180 184 196 195 196 195 192 194 199 205 212 217 215 216 217 228 226 223 233 217 218 236 225 247 233
302 309 321 331 338 355 356 1 311 346 14 51 135 84 86 97 96 99 80 185 72 76 174 183 193 197 197 199 196 193 204 209 208 209 210 209 221 229 231 233 240 244 218 249 257 248 228
294 305 321 326 334 356 359 358 222 286 175 27 107 101 110 106 112 101 99 111 163 99 92 183 193 197 198 200 200 193 190 207 210 210 214 215 220 223 225 226 219 214 210 211 215 240 244
284 298 319 323 330 351 357 356 333 218 185 349 146 139 128 136 120 112 106 104 115 114 118 189 194 196 199 200 202 199 205 210 213 214 217 218 210 229 229 230 239 228 231 222 226 237 239
273 287 312 323 327 349 353 3 346 192 207 195 161 145 133 132 134 131 123 116 114 122 140 129 195 197 201 202 202 204 205 209 213 218 221 213 218 227 233 232 234 223 223 223 247 243 249
261 276 292 321 332 349 359 4 350 201 229 188 186 174 161 139 154 148 145 137 129 139 127 163 162 201 201 203 205 207 209 212 215 217 217 220 227 225 227 222 237 237 241 231 244 235 245
242 287 275 308 340 351 6 348 333 200 202 283 182 187 183 164 174 156 181 216 135 136 156 164 133 139 206 206 208 211 212 217 218 220 221 223 228 232 234 235 234 232 240 243 229 237 245
225 253 255 281 315 2 19 1 358 195 200 211 198 191 181 186 177 176 176 158 169 141 137 144 164 168 168 158 192 213 215 219 221 222 224 228 218 224 213 228 235 235 239 238 240 242 248
215 247 234 251 287 11 21 15 359 202 194 233 206 194 167 195 182 189 187 171 175 180 163 157 150 162 179 171 167 166 186 175 166 190 227 229 230 229 230 232 233 229 234 240 243 241 246
239 208 239 229 231 292 17 24 6 254 194 132 144 195 155 195 192 199 187 199 211 182 176 168 174 168 179 180 178 172 186 175 188 183 194 208 200 201 202 214 233 219 218 236 241 235 240
224 199 175 217 213 202 50 30 24 267 265 200 313 198 198 198 193 198 197 190 208 205 205 193 186 193 181 188 194 194 191 188 187 195 194 200 203 194 199 204 209 213 217 241 250 232 235
214 213 198 212 185 186 180 109 44 20 195 208 257 199 197 170 198 191 209 209 215 216 214 208 209 199 198 196 192 200 204 210 198 199 206 205 208 212 213 215 228 219 221 230 235 251 257
227 226 196 224 208 195 220 152 195 48 186 205 231 223 210 203 205 206 208 214 213 210 222 221 213 212 207 206 214 200 205 209 206 216 228 214 209 231 218 223 234 244 242 239 240 243 245
214 221 230 229 240 205 206 207 207 154 110 196 225 248 214 175 213 214 202 188 213 213 216 218 184 218 216 211 208 207 213 217 228 230 216 218 217 223 232 240 231 234 238 243 245 254 258
210 209 217 219 228 210 200 211 210 212 162 133 201 214 209 213 217 171 211 205 215 198 178 220 221 220 232 223 214 221 220 223 223 211 224 227 226 239 244 246 240 238 251 250 256 257 257
206 213 205 216 225 228 203 195 201 213 236 187 172 204 215 215 216 192 195 217 217 221 222 222 226 214 226 233 232 223 221 229 231 234 237 234 240 240 250 243 248 252 257 256 261 267 266
208 205 223 207 223 226 225 222 206 204 203 235 213 204 204 210 201 225 220 198 210 222 226 224 208 220 234 230 226 232 235 231 228 238 240 240 245 251 257 252 256 260 262 260 268 271 273